Preview of NWS' New Version of Forecast
This preview is not operational and should not be used for support decisions.
Latest weather observations around

Bakersfield, Meadows Field Airport (KBFL)

Using English Units (Switch to International System of Units)
Date/ Time (PDT) Wind (mph) Vis. (mi) Weather Sky Cond. Temp (°F) Rel. Humidity Wind Chill (°F) Heat Index (°F) Pressure Precip. (in)
Air Dwpt 6 hour Altimeter (inHg) Sea level (inHg) 1 hr 3 hr 6 hr
Max Min
Jun 18 05:54 Calm 10 Clear CLR 61 46     58%     30 29.98      
Jun 18 04:54 7 10 Clear CLR 63 46     54%     29.98 29.97      
Jun 18 03:54 N 3 10 Clear CLR 62 45     53%     29.98 29.96      
Jun 18 02:54 Calm 10 Clear CLR 63 45     52%     29.96 29.95      
Jun 18 01:54 N 6 10 Clear CLR 63 46     54%     29.95 29.94      
Jun 18 00:54 NNW 7 10 Clear CLR 63 46     54%     29.95 29.93      
Jun 17 23:54 NNW 10 10 Clear CLR 65 47     52%     29.94 29.93      
Jun 17 22:54 NW 11 10 Clear CLR 68 45     43%     29.93 29.92      
Jun 17 21:54 NNE 6 10 Clear CLR 72 45     38%   71 29.91 29.9      
Jun 17 20:54 N 5 10 Clear CLR 74 46     37%   73 29.89 29.88      
Jun 17 19:54 NNW 6 10 Clear CLR 76 46     35%   75 29.87 29.86      
Jun 17 18:54 WNW 6 10 Clear CLR 77 45     32%   76 29.87 29.86      
Jun 17 17:54 WNW 9 10 Clear CLR 76 47     36%   75 29.87 29.85      
Jun 17 16:54 WNW 9 10 Clear CLR 77 47     35%   76 29.88 29.87      
Jun 17 15:54 NW 10 10 Clear CLR 76 47     36%   75 29.89 29.88      
Jun 17 14:54 6 10 Clear CLR 74 48     40%   73 29.9 29.89      
Jun 17 13:54 WNW 9 10 Partly Cloudy SCT050 73 49     43%   72 29.91 29.9      
Jun 17 12:54 W 10 10 Mostly Cloudy FEW043 BKN055 73 49     43%   72 29.91 29.89      
Jun 17 11:54 W 8 10 Cloudy OVC050 69 50     51%     29.91 29.9      
Jun 17 10:54 NW 11 10 Cloudy BKN035 BKN046 OVC055 68 50     53%     29.92 29.9      
Jun 17 09:54 NNW 15 10 Cloudy BKN039 OVC050 66 50     56%     29.9 29.89      
Jun 17 08:54 N 10 10 Cloudy OVC043 64 49     58%     29.89 29.88      
Jun 17 07:54 NNW 10 10 Cloudy OVC046 63 49     60%     29.87 29.85      
Jun 17 06:54 N 10 10 Clear CLR 61 49     64%     29.85 29.83      
Jun 17 05:54 N 9 10 Clear CLR 60 49     67%     29.83 29.82      
Jun 17 04:54 N 10 10 Clear CLR 60 49     67%     29.83 29.81      
Jun 17 03:54 NNE 10 10 Clear CLR 60 49     67%     29.81 29.79      
Jun 17 02:54 NNE 13 10 Clear CLR 61 48     62%     29.79 29.78      
Jun 17 01:54 N 15 10 Clear CLR 62 48     60%     29.77 29.75      
Jun 17 00:54 N 10 10 Clear CLR 63 48     58%     29.75 29.73      
Jun 16 23:54 N 15 10 Clear CLR 64 47     54%     29.74 29.72      
Jun 16 22:54 N 15 10 Clear CLR 65 47     52%     29.73 29.72      
Jun 16 21:54 N 16 10 Clear CLR 66 48     52%     29.73 29.71      
Jun 16 20:54 NNW 15 10 Clear CLR 68 48     49%     29.7 29.68      
Jun 16 19:54 NNW 18 10 Clear CLR 73 49     43%   72 29.68 29.66      
Jun 16 18:54 NNW 22 10 Clear and Windy CLR 79 47     32%   78 29.66 29.64      
Jun 16 17:54 NNW 20 10 Clear and Windy CLR 84 47     27%   82 29.64 29.63      
Jun 16 16:54 NW 18 10 Clear CLR 86 46     25%   83 29.64 29.62      
Jun 16 15:54 NW 18 10 Clear CLR 88 47     24%   85 29.64        
Jun 16 14:54 NNW 11 10 Clear CLR 87 44     22%   84 29.66 29.64      
Jun 16 13:54 NW 15 10 Clear CLR 86 41     21%   83 29.67 29.65      
Jun 16 12:54 N 15 10 Clear CLR 85 46     26%   82 29.68 29.66      
Jun 16 11:54 NW 13 10 Clear CLR 85 45     25%   82 29.68 29.66      
Jun 16 10:54 W 6 10 Clear CLR 80 44     28%   79 29.69 29.67      
Jun 16 09:54 SW 5 10 Clear CLR 76 45     33%   75 29.7 29.68      
Jun 16 08:54 W 3 10 Clear CLR 73 45     37%   72 29.71 29.69      
Jun 16 07:54 N 6 10 Clear CLR 70 44     39%     29.71 29.69      
Jun 16 06:54 N 3 10 Clear CLR 66 41     40%     29.7 29.68      
Jun 16 05:54 NNW 9 10 Clear CLR 63 42     46%     29.68 29.66      
Jun 16 04:54 NNW 8 10 Clear CLR 67 35     31%     29.67 29.65      
Jun 16 03:54 NNW 10 10 Clear CLR 69 35     29%     29.67 29.64      
Jun 16 02:54 N 8 10 Clear CLR 68 37     32%     29.66 29.64      
Jun 16 01:54 N 11 10 Clear CLR 70 40     33%     29.67 29.64      
Jun 16 00:54 N 13 10 Clear CLR 74 39     28%   72 29.66 29.64      
Jun 15 23:54 NNW 6 10 Clear CLR 74 33     22%   72 29.66 29.64      
Jun 15 22:54 N 9 10 Clear CLR 78 37     23%   77 29.66 29.64      
Jun 15 21:54 N 11 10 Clear CLR 79 39     24%   78 29.65 29.63      
Jun 15 20:54 NNW 14 10 Clear CLR 82 37     20%   80 29.63 29.6      
Jun 15 19:54 NNW 13 10 Clear CLR 86 40     20%   83 29.62 29.59      
Jun 15 18:54 NW 18 10 Clear CLR 92 35     14%   88 29.61 29.59      
Jun 15 17:54   10 Clear CLR 96 35     12%   91 29.61 29.58      
Jun 15 16:54 NW 17 10 Clear CLR 97 41     15%   93 29.62 29.59      
Jun 15 15:54 NW 16 10 Clear CLR 97 41     15%   93 29.63 29.61      
Jun 15 14:54 NNW 16 10 Clear CLR 97 39     14%   92 29.65 29.63      
Jun 15 13:54 NW 13 10 Clear CLR 96 40     14%   92 29.67 29.65      
Jun 15 12:54 W 13 10 Clear CLR 94 40     15%   90 29.69 29.66      
Jun 15 11:54 NW 11 10 Clear CLR 94 42     17%   90 29.7 29.67      
Jun 15 10:54 NNW 6 10 Clear CLR 91 34     13%   87 29.71 29.68      
Jun 15 09:54 N 7 10 Clear CLR 87 33     15%   84 29.72 29.7      
Jun 15 08:54 NW 9 10 Clear CLR 82 32     16%   80 29.73 29.7      
Jun 15 07:54   10 Clear CLR 80 35     20%   79 29.72 29.69      
Jun 15 06:54 N 3 10 Clear CLR 74 34     23%   72 29.71 29.69      
Jun 15 05:54 E 6 10 Clear CLR 73 35     25%   71 29.71 29.68      
Jun 15 04:54 ENE 5 10 Clear CLR 72        %     29.7 29.68      
May 13 14:54 WNW 10 10 Clear CLR 80 45     29%   79 29.91 29.89      
May 12 17:54 WNW 17 10 Clear CLR 82 38     21%   80 29.8 29.79      
May 12 12:54 WSW 6 10 Clear CLR 78 41     27%   77 29.87 29.85      
May 12 00:54 E 6 10 Clear CLR 67 43     42%     29.76 29.74      
Jun 11 23:54 N 18 10 Mostly Cloudy BKN080 61 42     50%     29.98 29.97      
Jun 11 09:54 NNW 13 10 Mostly Clear FEW039 64 43     46%     29.93 29.92      
Jun 11 07:54 NNW 15 10 Clear CLR 61 44     54%     29.91 29.9      
Jun 10 21:54 N 6 10 Clear CLR 71 46     41%   70 29.84 29.82      
Jun 10 18:54 NW 10 10 Clear CLR 77 46     33%   76 29.82 29.8      
Jun 10 15:54 W 10 10 Clear CLR 77 47     35%   76 29.85 29.84      
Jun 10 08:54 NW 8 10 Cloudy OVC048 63 43     48%     29.96 29.94      
Jun 08 21:54 NW 14 10 Clear   76 48     37%   75 29.92 29.9      
Jun 08 14:01 W 10 9 Mostly Clear FEW001 87 37     17%   84 29.94        
Jun 08 11:54 W 7 10 Clear CLR 81 46     29%   80 29.97 29.95      
Jun 08 06:54 ENE 5 10 Clear CLR 69 46     44%     29.97 29.95      
Jun 07 08:54 3 10 Clear CLR 78 45     31%   77 29.87 29.85